Location: Lugrin
(46.4033°N, 6.6674°E)
Time: 17:06:14
(UTC+00:00)

CZ-2C R/B - Pass Details

Date: 18 September 2020
Orbit: 391 x 588 km, 35.0° (Epoch: 29 October)

Event Time Altitude Azimuth Distance (km) Brightness Sun altitude
Rises 18:59:34 0° 233° (SW) 2,441 5.2 -14.6°
Reaches altitude 10° 19:02:49 10° 202° (SSW) 1,522 3.6 -15.1°
Maximum altitude 19:04:16 12° 177° (S) 1,377 3.1 -15.4°
Enters shadow 19:04:30 12° 173° (S) 1,378 3.1 -15.4°
